Home > Weather > Hat Yai > Past weeks

Flag for Thailand Weather for the Past 2 Weeks in Hat Yai, Thailand

Now
77 °F

Passing clouds.


Feels Like: 79 °F
Forecast: 76 / 84 °F
Wind: 8 mph from Northeast

Location: Hat Yai Airport

Current Time: Feb 8, 2016 at 5:09:27 AM

Latest Report: Feb 8, 2016 at 4:30 AM


Visibility: N/A

Pressure: 29.86 "Hg

Humidity: 79%

Dew point: 70 °F

Location of Hat YaiLocation

Historic Weather in Hat Yai — Graph

°F

Hat Yai Temperature Yesterday

Maximum temperature yesterday: 88 °F (at 11:30 AM)
Minimum temperature yesterday: 77 °F (at 4:00 AM)
Average temperature yesterday: 80 °F

High & Low Weather Summary for the Past Weeks

 TemperatureHumidityPressure
High91 °F (Jan 24, 12:30 PM)100% (Jan 24, 5:30 AM)29.98 "Hg (Jan 24, 5:30 AM)
Low70 °F (Feb 2, 6:30 AM)52% (Feb 2, 3:30 PM)29.74 "Hg (Feb 5, 3:30 PM)
Average81 °F84%29.87 "Hg
* Reported Jan 24 3:00 AM — Feb 8 3:30 AM, Hat Yai, Weather by CustomWeather, © 2016

Note: Actual official high and low records may vary slightly from our data, if they occured in-between our weather recording intervals... More about our weather records

Advertising

Hat Yai Weather History for the Previous 24 Hours

 ConditionsComfort  
Time TempWeatherWind HumidityBarometerVisibility
3:30 AM
Mon, Feb 8
77 °FPassing clouds.6 mph79%29.89 "HgN/A
3:00 AM77 °FPassing clouds.9 mph79%29.89 "HgN/A
2:30 AM79 °FPassing clouds.12 mph74%29.89 "Hg6 mi
2:00 AM79 °FPassing clouds.14 mph74%29.89 "Hg6 mi
1:30 AM79 °FPassing clouds.12 mph74%29.92 "Hg6 mi
1:00 AM79 °FPassing clouds.14 mph74%29.92 "Hg6 mi
12:30 AM79 °FPartly cloudy.13 mph74%29.92 "Hg6 mi
12:00 AM79 °FPartly cloudy.10 mph74%29.95 "Hg6 mi
11:30 PM
Sun, Feb 7
79 °FPartly cloudy.12 mph74%29.95 "Hg6 mi
11:00 PM79 °FPartly cloudy.9 mph79%29.95 "Hg6 mi
10:30 PM79 °FPartly cloudy.9 mph79%29.95 "Hg6 mi
10:00 PM79 °FPartly cloudy.12 mph74%29.95 "Hg6 mi
9:30 PM79 °FPartly cloudy.16 mph74%29.95 "Hg6 mi
9:00 PM79 °FPartly cloudy.15 mph74%29.92 "Hg6 mi
8:30 PM79 °FPartly cloudy.17 mph79%29.92 "Hg6 mi
8:00 PM79 °FPartly cloudy.13 mph79%29.89 "Hg5 mi
7:30 PM79 °FPartly cloudy.12 mph79%29.89 "Hg5 mi
7:00 PM77 °FPartly cloudy.7 mph94%29.86 "Hg4 mi
6:30 PM77 °FFog.6 mph89%29.86 "Hg3 mi
6:00 PM77 °FLight rain. Fog.10 mph89%29.86 "Hg3 mi
5:30 PM79 °FFog.10 mph84%29.83 "Hg3 mi
5:00 PM79 °FBroken clouds.12 mph84%29.83 "Hg4 mi
4:30 PM77 °FLight rain. Broken clouds.13 mph94%29.83 "Hg4 mi
4:00 PM77 °FRain. Broken clouds.13 mph94%29.83 "Hg2 mi
3:30 PM77 °FLight rain. Broken clouds.12 mph94%29.83 "Hg4 mi
3:00 PM84 °FBroken clouds.16 mph70%29.83 "Hg5 mi
2:30 PM84 °FScattered clouds.16 mph70%29.83 "HgN/A
2:00 PM86 °FScattered clouds.26 mph66%29.83 "HgN/A
1:30 PM86 °FScattered clouds.20 mph66%29.86 "HgN/A
1:00 PM88 °FScattered clouds.25 mph62%29.86 "HgN/A
12:30 PM86 °FScattered clouds.22 mph66%29.89 "HgN/A
12:00 PM88 °FScattered clouds.20 mph66%29.89 "HgN/A
11:30 AM88 °FScattered clouds.20 mph66%29.89 "Hg6 mi
11:00 AM86 °FScattered clouds.20 mph70%29.92 "Hg5 mi
10:30 AM86 °FBroken clouds.15 mph70%29.92 "Hg5 mi
10:00 AM82 °FPartly sunny.12 mph84%29.92 "Hg5 mi
9:00 AM79 °FFog.5 mph94%29.92 "Hg5 mi
8:30 AM79 °FFog.7 mph94%29.89 "Hg6 mi
8:00 AM77 °FLight rain. Broken clouds.9 mph94%29.89 "Hg4 mi
7:30 AM79 °FScattered showers. Broken clouds.9 mph89%29.86 "HgN/A
7:00 AM77 °FBroken clouds.3 mph94%29.86 "HgN/A
6:30 AM79 °FPartly cloudy.3 mph89%29.83 "HgN/A
6:00 AM77 °FPartly cloudy.No wind94%29.83 "HgN/A
5:30 AM77 °FPassing clouds.No wind94%29.83 "HgN/A
5:00 AM77 °FPassing clouds.2 mph94%29.83 "HgN/A
Weather by CustomWeather, © 2016

See weather overviewHow to use our weather pages